Starlink 35352

operational
NORAD ID: 66178 Int'l Des: 2025-243 Owner: SPXS Country: US Constellation: starlink
LEOCIRCULAR

Starlink 35352について

説明を読み込み中...

リアルタイム位置

3D地球を読み込み中...

次回通過

高度履歴

Altitude vs Time

uPlot chart will show altitude changes over time

軌道要素

1 66178C 25243A 25299.73868056 .00679140 00000+0 11163-2 0 2997
2 66178 53.1580 157.0579 0008776 274.7449 36.6233 16.01696574 10
Epoch: Oct 26, 2025 • Age: 132 hours

現在のステータス

高度 253.0 km
速度 7.76 km/s
衛星直下点 -17.76°S, 101.11°E
打ち上げ日 Oct 26, 2025
運用期間 4 days
タイプ internet

技術仕様

分類 Payload
質量 575.00 kg
乾燥質量 530.00 kg
総質量 575.00 kg
長さ 0.30 m
直径 4.10 m
スパン 29.00 m
形状 Box + pan
製造者 SPXS
バスタイプ Starlink V2MO
フェーズステータス In Orbit
所有者/国 SPXS/US

大規模コンステレーション

Loading constellations...